Location: Newark
(38.1091°N, 103.8677°W)
Time: 00:05:13
(UTC+00:00)

N. Korean satellite - Pass Details

Date: 26 October 2019
Orbit: 456 x 506 km, 97.2° (Epoch: 20 November)

Event Time Altitude Azimuth Distance (km) Brightness Sun altitude
Rises 11:42:13 0° 36° (NE) 2,586 10.8 -18.8°
Reaches altitude 10° 11:45:33 10° 70° (ENE) 1,707 10.4 -18.2°
Maximum altitude 11:46:56 12° 92° (E) 1,598 10.4 -17.9°
Drops below altitude 10° 11:48:19 10° 114° (ESE) 1,708 10.4 -17.6°
Sets 11:51:39 0° 148° (SSE) 2,591 10.8 -17.0°
